{"data":{"norad_id":58746,"intl_designator":"2024-005U","name":"STARLINK-31181","alt_names":[],"object_type":"PAYLOAD","status":"ACTIVE","operator":null,"country":"US","launch_date":"2024-01-07","launch_site_code":"AFETR","launch_vehicle":null,"mission":null,"orbit_class":"UNKNOWN","rcs_meters":null,"size_class":null,"mass_kg":null,"dimensions":null,"purposes":["comms"],"wikipedia_slug":null,"has_3d_model":false,"image_url":null,"decayed_at":null,"tle_current":{"epoch":"2026-05-25T00:08:39.094656Z","epoch_age_seconds":84705,"freshness":"FRESH","line1":"1 58746U 24005U   26145.00600804  .00000807  00000+0  38849-4 0  9997","line2":"2 58746  43.0005 356.5271 0000724 300.1273  59.9507 15.27575234133959","mean_motion":15.27575234,"eccentricity":7.24e-5,"inclination_deg":43.0005,"raan_deg":356.5271,"arg_perigee_deg":300.1273,"mean_anomaly_deg":59.9507,"bstar":3.8849e-5,"rev_number":13395,"period_min":94.267042823764,"perigee_km":482.56661628873,"apogee_km":483.5601181019,"semimajor_km":6861.2003671953,"source":"CELESTRAK","updated_at":"2026-05-25T13:38:18.740260Z"}}}